Flag for Switzerland Weather past 2 weeks in Liestal, Basel-Land, Switzerland

Now
52 °F

Light rain. Passing clouds.


Feels Like: 46 °F
Forecast: 44 / 54 °F
Wind: 18 mph from West

Location: Bale-Mulhouse

Current Time: Mar 30, 2015 at 2:08:22 AM

Latest Report: Mar 30, 2015 at 1:30 AM


Visibility: N/A

Pressure: 29.71 "Hg

Humidity: 82%

Dew point: 46 °F

Location of LiestalLocation

Historic Weather in Liestal — Graph

°F

Liestal temperature yesterday

Maximum temperature yesterday: 55 °F (at 6:00 PM)
Minimum temperature yesterday: 46 °F (at 1:00 AM)
Average temperature yesterday: 52 °F

Past Weeks' High & Low Weather Summary

 TemperatureHumidityPressure
High64 °F (Mar 17, 3:30 PM)100% (Mar 15, 4:00 AM)30.27 "Hg (Mar 15, 4:00 AM)
Low27 °F (Mar 15, 5:30 AM)37% (Mar 17, 3:30 PM)29.62 "Hg (Mar 25, 6:00 AM)
Average46 °F73%30.03 "Hg
* Reported Midnight between Mar 14 and Mar 15 — Mar 30 1:00 AM, Liestal, Weather by CustomWeather, © 2015

Note: Actual official high and low records may vary slightly from our data, if they occured in-between our weather recording intervals... More about our weather records

Advertising

Liestal weather history for previous 24 hours

 ConditionsComfort  
Time TempWeatherWind HumidityBarometerVisibility
1:00 AM
Mon, Mar 30
52 °FLight rain. Passing clouds.20 mph82%29.74 "HgN/A
12:30 AM52 °FPassing clouds.23 mph82%29.71 "HgN/A
12:00 AM52 °FLight rain. Partly cloudy.21 mph82%29.74 "HgN/A
11:00 PM
Sun, Mar 29
52 °FLight rain. Mostly cloudy.20 mph82%29.74 "HgN/A
10:30 PM52 °FLight rain. Passing clouds.18 mph88%29.77 "HgN/A
10:00 PM52 °FLight rain. Partly cloudy.20 mph82%29.77 "HgN/A
9:30 PM52 °FLight rain. Passing clouds.20 mph82%29.77 "HgN/A
9:00 PM52 °FLight rain. Passing clouds.18 mph82%29.77 "HgN/A
8:30 PM54 °FLight rain. Broken clouds.21 mph77%29.77 "HgN/A
8:00 PM54 °FLight rain. Broken clouds.20 mph77%29.77 "HgN/A
7:30 PM54 °FLight rain. Broken clouds.17 mph77%29.77 "HgN/A
7:00 PM55 °FLight rain. Partly sunny.21 mph72%29.80 "HgN/A
6:30 PM54 °FLight rain. Partly sunny.16 mph77%29.83 "HgN/A
6:00 PM55 °FBroken clouds.8 mph72%29.83 "HgN/A
5:30 PM54 °FPartly sunny.16 mph72%29.83 "HgN/A
5:00 PM54 °FPartly sunny.21 mph72%29.86 "HgN/A
4:30 PM54 °FPartly sunny.16 mph72%29.86 "HgN/A
4:00 PM52 °FLight rain. Partly sunny.14 mph82%29.86 "HgN/A
3:30 PM50 °FLight rain. Broken clouds.16 mph88%29.89 "HgN/A
3:00 PM52 °FLight rain. Broken clouds.20 mph82%29.92 "HgN/A
2:30 PM52 °FLight rain. Broken clouds.16 mph82%29.92 "HgN/A
2:00 PM50 °FLight rain. Broken clouds.15 mph82%29.92 "HgN/A
1:30 PM50 °FLight rain. Broken clouds.18 mph82%29.95 "HgN/A
1:00 PM50 °FLight rain. Partly sunny.16 mph82%29.95 "HgN/A
12:30 PM50 °FLight rain. Partly sunny.14 mph88%29.95 "HgN/A
12:00 PM52 °FLight rain. Broken clouds.16 mph77%29.95 "HgN/A
11:30 AM52 °FBroken clouds.17 mph72%29.95 "HgN/A
11:00 AM52 °FPartly sunny.13 mph77%29.98 "HgN/A
10:30 AM52 °FPartly sunny.20 mph77%29.98 "HgN/A
10:00 AM54 °FPartly sunny.13 mph72%29.98 "HgN/A
9:30 AM52 °FPartly sunny.14 mph77%29.98 "HgN/A
8:30 AM52 °FBroken clouds.10 mph77%29.98 "HgN/A
8:00 AM52 °FPartly cloudy.15 mph77%29.98 "HgN/A
7:30 AM52 °FPartly cloudy.17 mph77%29.98 "HgN/A
7:00 AM50 °FPartly cloudy.12 mph82%29.98 "HgN/A
6:30 AM50 °FPartly cloudy.12 mph82%30.01 "HgN/A
6:00 AM50 °FPartly cloudy.9 mph82%30.01 "HgN/A
5:30 AM52 °FPassing clouds.13 mph72%30.01 "HgN/A
5:00 AM50 °FPartly cloudy.6 mph82%30.04 "HgN/A
4:30 AM52 °FPartly cloudy.13 mph77%30.04 "HgN/A
4:00 AM52 °FMostly cloudy.9 mph77%30.04 "HgN/A
3:30 AM52 °FPassing clouds.17 mph77%30.07 "HgN/A
3:00 AM52 °FMostly cloudy.10 mph82%30.07 "HgN/A
Weather by CustomWeather, © 2015

See weather overviewHow to use our weather pages